Погода в Покровском

Украина / Днепропетровская область     47°58′56″N   36°14′01″E
темп.,
°C
ветер,
м/с
пор.,
м/с
влажн.,
%
обл.,
%
осадки,
мм/ч
давл.,
гПа
погр.,
м
11 мая, вт
вт1100:00+8ссз81587100 1.4 1014904
03:00+9ссз71491100 2.4 1013702
06:00+10ссз71293100 0.3 1012705
09:00+11с71388100 0.6 10111149
12:00+9св598343 0.3 1014719
15:00+11св6964100 0.4 10151479
18:00+11ссв71067100 0.2 10141233
21:00+8ссв5882100 0.3 1015942
12 мая, ср
ср1200:00+7св2490100 0.5 1014378
03:00+7в3690100 0.9 1014355
06:00+7в469387 0.6 1014406
09:00+9вюв568498 1.7 1014759
12:00+10ююв3476100 1.8 10141015
15:00+11сз127689 3.4 1014561
18:00+13ююз47677 2.3 1013982
21:00+9ююв22837 2.7 101420
13 мая, чт
чт1300:00+7ююв22916 0.0 101424
03:00+7вюв22952 0.0 101412
06:00+8в23945 0.0 101451
09:00+15юв34735 0.0 1014559
12:00+20ююв355631 0.0 10131499
15:00+23юв4547100 0.0 10122035
18:00+21вюв4760100 0.0 1011275
21:00+17юв3675100 0.0 1012103
14 мая, пт
пт1400:00+14вюв499084 0.0 1011153
03:00+14вюв38942 0.0 1011149
06:00+14вюв38945 0.0 1011180
09:00+20ююв3475100 0.0 1010438
12:00+25ююв3354100 0.0 1010949
15:00+27ю344693 0.0 10101603
18:00+26ююв2457100 0.0 1009223
21:00+18юз33794 0.4 101043
15 мая, сб
сб1500:00+16юз3380100 0.0 101041
03:00+15зюз357822 0.0 101184
06:00+14зюз23875 0.0 101172
09:00+19юз34641 0.0 1012557
12:00+23юз465185 0.0 10121535
15:00+24зюз5646100 0.0 10122037
18:00+20ю476315 0.0 1012271
21:00+16юз34743 0.0 101356